This demonstration page uses our WeatherBlox Daily Observations layout. Learn more.

Left ArrowRight Arrow

Hourly Observations for August 16, 2019

Temp ( °F °C ) Dew Point ( °F °C ) Humidity (%) Winds ( mph kmh ) Pressure ( in mb ) Visibility ( mi km ) Precip ( " mm )
12:59 am 00:59 Partly Cloudy 79 26.1 76 24.4 90 90 Calm 29.94 1014 10 16 0.00 0.00
1:59 am 01:59 Partly Cloudy 77 25 74 23.3 90 90 VRB 6 9 29.96 1014 10 16 0.00 0.00
2:59 am 02:59 Partly Cloudy 78 25.6 76 24.4 93 93 VRB 3 6 29.96 1014 10 16 0.00 0.00
3:59 am 03:59 Partly Cloudy 78 25.6 76 24.4 93 93 VRB 3 6 29.95 1014 10 16 0.00 0.00
4:59 am 04:59 Partly Cloudy 77 25 74 23.3 90 90 S 3 6 29.95 1014 10 16 0.00 0.00
5:59 am 05:59 Partly Cloudy 77 25 74 23.3 90 90 S 3 6 29.97 1015 10 16 0.00 0.00
6:59 am 06:59 Mostly Sunny 75 23.9 73 22.8 94 94 Calm 29.97 1015 10 16 0.00 0.00
7:59 am 07:59 Mostly Sunny 80 26.7 73 22.8 79 79 SSW 3 6 29.97 1015 10 16 0.00 0.00
8:59 am 08:59 Mostly Sunny 81 27.2 74 23.3 79 79 SSE 5 7 29.99 1016 10 16 0.00 0.00
9:59 am 09:59 Partly Cloudy 82 27.8 74 23.3 77 77 Calm 29.99 1016 10 16 0.00 0.00
10:59 am 10:59 Mostly Sunny 82 27.8 75 23.9 79 79 NNW 8 13 30.00 1016 10 16 0.00 0.00
11:59 am 11:59 Mostly Sunny 84 28.9 76 24.4 77 77 NNE 6 9 30.00 1016 9 14 0.00 0.00
12:59 pm 12:59 Partly Cloudy 84 28.9 75 23.9 74 74 ENE 8 13 29.99 1016 10 16 0.00 0.00
1:59 pm 13:59 Mostly Cloudy 83 28.3 76 24.4 79 79 ENE 7 11 29.99 1016 10 16 0.00 0.00
2:59 pm 14:59 Partly Cloudy 85 29.4 77 25 77 77 ENE 10 17 29.98 1015 10 16 0.00 0.00
3:59 pm 15:59 Partly Cloudy 85 29.4 78 25.6 80 80 ENE 12 19 29.97 1015 10 16 0.00 0.00
4:39 pm 16:39 Mostly Cloudy with Thunderstorms 84 28.9 78 25.6 82 82 ENE 9 15 29.98 1015 9 14 0.00 0.00
4:48 pm 16:48 Mostly Cloudy with Strong Thunderstorms 82 27.8 73 22.8 74 74 SW 10 17 29.98 1015 2 3 0.01 0.25
4:59 pm 16:59 Mostly Cloudy with Strong Thunderstorms 77 25 74 23.3 90 90 SW 8 13 29.98 1015 2 3 0.13 3.30
5:06 pm 17:06 Mostly Cloudy with Thunderstorms 77 25 72 22.2 85 85 SW 8 13 29.97 1015 3 5 0.18 4.57
5:10 pm 17:10 Mostly Cloudy with Light Rain 77 25 72 22.2 85 85 VRB 3 6 29.97 1015 6 10 0.18 4.57
5:59 pm 17:59 Mostly Cloudy 81 27.2 78 25.6 91 91 S 3 6 29.95 1014 9 14 0.18 4.57
6:59 pm 18:59 Mostly Cloudy 80 26.7 77 25 90 90 SSW 6 9 29.97 1015 10 16 0.00 0.00
7:59 pm 19:59 Mostly Cloudy 79 26.1 75 23.9 88 88 S 5 7 29.98 1015 10 16 0.00 0.00
8:59 pm 20:59 Mostly Cloudy 78 25.6 74 23.3 87 87 S 3 6 29.99 1016 10 16 0.00 0.00
9:59 pm 21:59 Clear 77 25 73 22.8 88 88 S 5 7 29.98 1015 10 16 0.00 0.00
10:59 pm 22:59 Partly Cloudy 77 25 72 22.2 85 85 S 7 11 29.99 1016 10 16 0.00 0.00
11:59 pm 23:59 Partly Cloudy 76 24.4 72 22.2 88 88 SSE 5 7 29.99 1016 10 16 0.00 0.00

Powered by AerisWeather